Weather History for Logan, UT

Change the Weather History Date:

Friday, January 24, 2014

  Actual Average Record
Temperature  
Mean Temperature 12 °F -  
Max Temperature 25 °F 30 °F 52 °F (1970)
Min Temperature 0 °F 11 °F -15 °F (1962)
Degree Days  
Heating Degree Days 52    
Moisture  
Dew Point 1 °F    
Average Humidity 78    
Maximum Humidity 87    
Minimum Humidity 60    
Precipitation  
Precipitation 0.00 in - - ()
Sea Level Pressure  
Sea Level Pressure 30.67 in    
Wind  
Wind Speed 1 mph (SW)    
Max Wind Speed 6 mph    
Max Gust Speed -    
Visibility 3 miles    
Events Fog    
Averages and records for this station are not official NWS values.
T = Trace of Precipitation, MM = Missing Value Source: NWS Daily Summary

Daily Weather History Graph

Daily Weather History Graph

Search for Another Location

Airport:

Trip Planner

Search our weather history database for the weather conditions in past years. The results will help you decide how hot, cold, wet, or windy it might be!

Date:

Astronomy

Jan. 24, 2014 Rise Set
Actual Time 7:46 AM MST 5:32 PM MST
Civil Twilight 7:16 AM MST 6:02 PM MST
Nautical Twilight 6:42 AM MST 6:36 PM MST
Astronomical Twilight 6:09 AM MST 7:09 PM MST
Moon 1:16 AM MST (1/24) 11:54 AM MST (1/24)
Length of Visible Light 10h 46m
Length of Day
9h 45m
Last Quarter, 44% of the Moon is Illuminated
Jan 24
Last Quarter
Jan 30
New
Feb 6
First Quarter
Feb 14
Full
Feb 22
Last Quarter

Hourly Weather History & Observations

Time (MST) Temp. Windchill Dew Point Humidity Pressure Visibility Wind Dir Wind Speed Gust Speed Precip Events Conditions
12:29 AM 6.1 °F - 1.0 °F 80% 30.54 in 2.0 mi Calm Calm - N/A   Haze
12:37 AM 6.1 °F - 1.0 °F 80% 30.55 in 1.0 mi Calm Calm - N/A   Haze
12:42 AM 8.1 °F - 3.0 °F 80% 30.55 in 0.2 mi Calm Calm - N/A   Haze
12:51 AM 5.0 °F - 1.0 °F 84% 30.73 in 0.2 mi Calm Calm - N/A Fog Light Freezing Fog
1:51 AM 3.0 °F -6.4 °F -2.0 °F 80% 30.75 in 0.8 mi SSE 4.6 mph - N/A   Haze
1:53 AM 3.9 °F -6.9 °F -0.9 °F 80% 30.58 in 1.2 mi South 5.8 mph - N/A   Haze
1:57 AM 3.9 °F -5.3 °F -0.9 °F 80% 30.57 in 3.0 mi South 4.6 mph - N/A   Haze
2:20 AM 3.0 °F - -2.9 °F 76% 30.58 in 1.2 mi Calm Calm - N/A   Haze
2:25 AM 1.9 °F - -2.9 °F 80% 30.58 in 0.2 mi Calm Calm - N/A   Haze
2:43 AM 1.9 °F - -2.0 °F 83% 30.58 in 0.2 mi Calm Calm - N/A Fog Light Freezing Fog
2:51 AM 1.9 °F - -2.9 °F 80% 30.76 in 0.2 mi Calm Calm - N/A   Haze
3:00 AM 1.9 °F - -2.9 °F 80% 30.58 in 0.2 mi Calm Calm - N/A   Haze
3:51 AM -0.0 °F - -5.1 °F 79% 30.77 in 0.5 mi Calm Calm - N/A   Haze
4:35 AM 1.9 °F - -2.9 °F 80% 30.59 in 1.2 mi Calm Calm - N/A   Haze
4:39 AM 3.0 °F - -2.9 °F 76% 30.58 in 3.0 mi Calm Calm - N/A   Haze
4:45 AM 3.0 °F -4.4 °F -2.9 °F 76% 30.58 in 6.0 mi South 3.5 mph - N/A   Haze
4:51 AM 3.9 °F -3.4 °F -2.0 °F 76% 30.75 in 4.0 mi SSW 3.5 mph - N/A   Haze
4:56 AM 5.0 °F -4.1 °F -0.9 °F 76% 30.58 in 1.8 mi SSW 4.6 mph - N/A   Haze
5:00 AM 5.0 °F -2.1 °F 1.0 °F 84% 30.58 in 1.0 mi SSW 3.5 mph - N/A   Mist
5:06 AM 3.9 °F -5.3 °F -0.9 °F 80% 30.58 in 0.5 mi SW 4.6 mph - N/A   Haze
5:51 AM 1.9 °F - -4.0 °F 76% 30.78 in 0.2 mi Calm Calm - N/A   Haze
6:51 AM -0.9 °F -8.9 °F -7.1 °F 75% 30.82 in 1.8 mi NNW 3.5 mph - N/A   Haze
6:55 AM -0.9 °F - -6.0 °F 79% 30.60 in 3.0 mi Calm Calm - N/A   Haze
7:02 AM -0.9 °F - -7.1 °F 75% 30.61 in 1.8 mi Calm Calm - N/A   Haze
7:09 AM -0.0 °F - -6.0 °F 76% 30.61 in 0.2 mi Calm Calm - N/A   Haze
7:51 AM 1.9 °F - -4.0 °F 76% 30.83 in 0.8 mi Calm Calm - N/A   Haze
7:55 AM 3.0 °F - -4.0 °F 73% 30.61 in 2.0 mi Calm Calm - N/A   Haze
8:03 AM 3.0 °F - -2.9 °F 76% 30.60 in 0.8 mi Calm Calm - N/A   Haze
8:28 AM 1.9 °F - -5.1 °F 72% 30.61 in 1.0 mi Calm Calm - N/A   Haze
8:34 AM 1.0 °F - -5.1 °F 75% 30.61 in 0.2 mi Calm Calm - N/A   Haze
8:51 AM 1.0 °F -8.7 °F -5.1 °F 75% 30.84 in 0.2 mi West 4.6 mph - N/A   Haze
9:43 AM 7.0 °F - 1.0 °F 77% 30.62 in 1.2 mi Calm Calm - N/A   Haze
9:49 AM 8.6 °F - 3.2 °F 79% 30.62 in 1.0 mi Calm Calm - N/A   Haze
9:51 AM 9.0 °F - 3.9 °F 80% 30.83 in 1.0 mi Calm Calm - N/A   Haze
9:56 AM 9.0 °F - 3.9 °F 80% 30.62 in 2.0 mi Calm Calm - N/A   Haze
10:01 AM 9.0 °F - 3.9 °F 80% 30.62 in 5.0 mi Calm Calm - N/A   Haze
10:51 AM 12.9 °F - 6.1 °F 74% 30.82 in 5.0 mi Calm Calm - N/A   Haze
11:51 AM 15.1 °F 9.4 °F 10.9 °F 84% 30.80 in 7.0 mi WNW 3.5 mph - N/A   Clear
12:51 PM 18.0 °F 12.7 °F 12.0 °F 78% 30.77 in 7.0 mi NW 3.5 mph - N/A   Clear
1:51 PM 19.9 °F - 12.9 °F 74% 30.75 in 10.0 mi Calm Calm - N/A   Clear
2:51 PM 19.9 °F 14.9 °F 14.0 °F 78% 30.73 in 10.0 mi WNW 3.5 mph - N/A   Clear
3:51 PM 25.0 °F - 12.9 °F 60% 30.71 in 10.0 mi Calm Calm - N/A   Clear
4:51 PM 24.1 °F 19.7 °F 12.9 °F 62% 30.70 in 10.0 mi North 3.5 mph - N/A   Clear
5:51 PM 18.0 °F 12.7 °F 12.0 °F 78% 30.72 in 9.0 mi North 3.5 mph - N/A   Clear
6:51 PM 12.9 °F 6.9 °F 8.1 °F 81% 30.75 in 9.0 mi ENE 3.5 mph - N/A   Clear
7:51 PM 10.0 °F - 5.0 °F 80% 30.76 in 8.0 mi Calm Calm - N/A   Clear
8:51 PM 10.9 °F - 7.0 °F 84% 30.76 in 8.0 mi Calm Calm - N/A   Clear
9:51 PM 10.0 °F 3.6 °F 6.1 °F 84% 30.73 in 9.0 mi SSW 3.5 mph - N/A   Clear
10:51 PM 10.9 °F - 7.0 °F 84% 30.71 in 8.0 mi Calm Calm - N/A   Clear
11:51 PM 8.1 °F - 5.0 °F 87% 30.70 in 7.0 mi Calm Calm - N/A   Clear